Flag for Canada Weather past 2 weeks in Pond Inlet, Nunavut Territory, Canada

Now
21 °F

Sunny.


Feels Like: 8 °F
Forecast: 18 / 26 °F
Wind: 14 mph from Northwest

Location: Pond Inlet

Current Time: Sep 30, 2014 at 7:49:43 AM

Latest Report: Sep 30, 2014 at 7:00 AM


Visibility: 9 mi

Pressure: 29.65 "Hg

Humidity: 68%

Dew point: 12 °F

Location of Pond InletLocation

Historic Weather in Pond Inlet — Graph

°F

Pond Inlet temperature yesterday

Maximum temperature yesterday: 18 °F (at 8:00 AM)
Minimum temperature yesterday: 9 °F (at 5:00 AM)
Average temperature yesterday: 14 °F

Past Weeks' High & Low Weather Summary

 TemperatureHumidityPressure
High37 °F (Sep 16, 10:00 AM)100% (Sep 15, 8:00 PM)29.93 "Hg (Sep 15, 8:00 PM)
Low9 °F (Sep 29, 5:00 AM)60% (Sep 16, 10:00 AM)29.46 "Hg (Sep 24, 6:00 AM)
Average25 °F86%29.71 "Hg
* Reported Sep 15 6:00 AM — Sep 30 6:00 AM, Pond Inlet, Weather by CustomWeather, © 2014

Note: Actual official high and low records may vary slightly from our data, if they occured in-between our weather recording intervals... More about our weather records

Advertising

Pond Inlet weather history for previous 24 hours

 ConditionsComfort  
Time TempWeatherWind HumidityBarometerVisibility
6:00 AM
Sep 30
14 °FOvercast.14 mph79%29.67 "Hg9 mi
5:00 AM16 °FPassing clouds.15 mph73%29.67 "Hg9 mi
4:00 AM18 °FOvercast.15 mph73%29.68 "Hg9 mi
2:00 AM16 °FOvercast.15 mph73%29.69 "Hg9 mi
1:00 AM12 °FPassing clouds.16 mph73%29.70 "Hg9 mi
12:00 AM14 °FPassing clouds.16 mph73%29.71 "Hg9 mi
11:00 PM
Sep 29
14 °FPassing clouds.15 mph73%29.72 "Hg9 mi
10:00 PM14 °FPassing clouds.17 mph73%29.72 "Hg9 mi
9:00 PM14 °FPassing clouds.15 mph73%29.74 "Hg9 mi
8:00 PM14 °FClear.17 mph67%29.75 "Hg9 mi
7:00 PM12 °FClear.16 mph79%29.75 "Hg9 mi
6:00 PM16 °FPassing clouds.16 mph67%29.76 "Hg20 mi
5:00 PM16 °FPassing clouds.16 mph67%29.76 "Hg15 mi
4:00 PM14 °FPassing clouds.14 mph79%29.77 "Hg20 mi
3:00 PM18 °FPartly sunny.15 mph68%29.77 "Hg15 mi
2:00 PM18 °FPartly sunny.15 mph68%29.78 "Hg15 mi
1:00 PM18 °FPartly sunny.13 mph68%29.79 "Hg15 mi
12:00 PM18 °FPartly sunny.10 mph68%29.79 "Hg15 mi
11:00 AM16 °FPartly sunny.13 mph73%29.79 "Hg15 mi
10:00 AM12 °FSunny.15 mph73%29.79 "Hg9 mi
9:00 AM14 °FOvercast.13 mph79%29.80 "Hg9 mi
8:00 AM18 °FOvercast.12 mph73%29.80 "Hg9 mi
7:00 AM12 °FOvercast.14 mph79%29.79 "Hg9 mi
Weather by CustomWeather, © 2014

See weather overviewHow to use our weather pages